TimeMST,TemperatureF,Dew PointF,Humidity,Sea Level PressureIn,VisibilityMPH,Wind Direction,Wind SpeedMPH,Gust SpeedMPH,PrecipitationIn,Events,Conditions,WindDirDegrees,DateUTC
12:53 AM,32.0,12.0,44,30.09,10.0,SW,11.5,-,N/A,,Clear,220,2013-01-22 07:53:00
1:53 AM,30.0,12.0,47,30.11,10.0,SSW,11.5,-,N/A,,Clear,210,2013-01-22 08:53:00
2:53 AM,30.9,10.9,43,30.08,10.0,SSW,12.7,-,N/A,,Clear,210,2013-01-22 09:53:00
3:53 AM,30.0,10.0,43,30.10,10.0,SW,12.7,-,N/A,,Clear,230,2013-01-22 10:53:00
4:53 AM,32.0,10.0,40,30.07,10.0,SW,9.2,-,N/A,,Clear,220,2013-01-22 11:53:00
5:53 AM,32.0,10.0,40,30.08,10.0,SW,11.5,-,N/A,,Clear,220,2013-01-22 12:53:00
6:53 AM,27.0,10.0,49,30.14,10.0,SW,10.4,-,N/A,,Clear,230,2013-01-22 13:53:00
7:53 AM,30.9,10.0,42,30.15,10.0,SW,10.4,-,N/A,,Clear,220,2013-01-22 14:53:00
8:53 AM,33.1,10.9,40,30.16,10.0,SW,12.7,-,N/A,,Clear,220,2013-01-22 15:53:00
9:53 AM,39.0,12.9,34,30.11,10.0,SSW,11.5,-,N/A,,Clear,210,2013-01-22 16:53:00
10:53 AM,45.0,15.1,30,30.12,10.0,SW,10.4,-,N/A,,Clear,220,2013-01-22 17:53:00
11:53 AM,48.0,15.1,27,30.11,10.0,SW,12.7,-,N/A,,Clear,230,2013-01-22 18:53:00
12:53 PM,48.9,15.1,26,30.08,10.0,WSW,13.8,-,N/A,,Clear,250,2013-01-22 19:53:00
1:53 PM,48.9,15.1,26,30.06,10.0,SW,15.0,-,N/A,,Clear,220,2013-01-22 20:53:00
2:53 PM,48.0,12.9,24,30.06,10.0,SW,13.8,-,N/A,,Clear,230,2013-01-22 21:53:00
3:53 PM,46.0,12.0,25,30.07,10.0,SW,12.7,-,N/A,,Clear,220,2013-01-22 22:53:00
4:53 PM,43.0,14.0,31,30.06,10.0,SSW,11.5,-,N/A,,Clear,210,2013-01-22 23:53:00
5:53 PM,44.1,12.9,28,30.05,10.0,SW,13.8,-,N/A,,Clear,230,2013-01-23 00:53:00
6:53 PM,44.1,12.0,27,30.07,10.0,SW,15.0,-,N/A,,Clear,220,2013-01-23 01:53:00
7:53 PM,35.1,17.1,48,30.10,10.0,Calm,Calm,-,N/A,,Clear,0,2013-01-23 02:53:00
8:53 PM,30.0,17.1,59,30.12,10.0,ENE,9.2,-,N/A,,Clear,60,2013-01-23 03:53:00
9:53 PM,28.0,17.1,63,30.13,10.0,ENE,9.2,-,N/A,,Clear,70,2013-01-23 04:53:00
10:53 PM,25.0,16.0,69,30.13,10.0,ENE,12.7,-,N/A,,Clear,70,2013-01-23 05:53:00
11:53 PM,23.0,15.1,72,30.14,10.0,ENE,11.5,-,N/A,,Clear,60,2013-01-23 06:53:00